Date String (YYYY-MM-DD hh:mm:ss) UTC,Instrument flags,absolute air pressure of the measurement (hPa),sample flow rate (lpm),inlet stack bypass flow (lpm),air temperature of the measurement (°C),ambient temperature measured by the external sensor (°C),aerosol sample conditioner tube jacket temperature (°C),OPC LED temperature (°C),internal box temperature (°C),relative humidity of the measurement (%),span deviation,mass concentration of particles derived from Lorenz-Mie calculation of OPC scattering (μg/m³),mass concentration of particles derived from Lorenz-Mie calculation of OPC scattering (μg/m³),mass concentration of particles derived from Lorenz-Mie calculation of OPC scattering (μg/m³)
DateTimeUTC,F1_M11,P_M11,Q1_M11,Q2_M11,T1_M11,T2_M11,T3_M11,T4_M11,T5_M11,U1_M11,ZSPAN_M11,X0_M11,X2_M11,X1_M11
2024-04-01 05:00:00,SystemResetWarning,0817.1,5.00,000.00,022.3,021.6,000.0,030.8,024.1,16.5,0000.0,0003.26,0000.51,0000.29
2024-04-01 05:01:00,SystemResetWarning,0817.2,5.00,000.00,022.3,021.6,000.0,030.8,024.1,16.7,0000.0,0003.87,0000.49,0000.29
2024-04-01 05:02:00,SystemResetWarning,0817.3,4.99,000.00,022.3,021.6,000.0,030.8,024.2,17.0,0000.0,0004.53,0000.49,0000.28
2024-04-01 05:03:00,SystemResetWarning,0817.3,5.00,000.00,022.3,021.6,000.0,030.8,024.2,17.3,0000.0,0004.59,0000.50,0000.27
2024-04-01 05:04:00,SystemResetWarning,0817.4,5.00,000.00,022.3,021.6,000.0,030.8,024.1,17.5,0000.0,0004.53,0000.47,0000.26
2024-04-01 05:05:00,SystemResetWarning,0817.4,5.00,000.00,022.3,021.6,000.0,030.8,024.2,17.5,0000.0,0004.48,0000.45,0000.26
2024-04-01 05:06:00,SystemResetWarning,0817.4,5.00,000.00,022.3,021.6,000.0,030.8,024.2,17.5,0000.0,0003.96,0000.44,0000.25
2024-04-01 05:07:00,SystemResetWarning,0817.4,5.00,000.00,022.3,021.6,000.0,030.9,024.2,17.6,0000.0,0004.13,0000.41,0000.26
2024-04-01 05:08:00,SystemResetWarning,0817.4,5.00,000.00,022.3,021.6,000.0,030.9,024.1,17.4,0000.0,0003.95,0000.43,0000.27
2024-04-01 05:09:00,SystemResetWarning,0817.4,4.99,000.00,022.3,021.6,000.0,030.9,024.2,17.6,0000.0,0003.46,0000.45,0000.28
2024-04-01 05:10:00,SystemResetWarning,0817.4,5.00,000.00,022.3,021.6,000.0,030.9,024.2,17.3,0000.0,0003.48,0000.46,0000.29
2024-04-01 05:11:00,SystemResetWarning,0817.4,5.00,000.00,022.3,021.6,000.0,030.9,024.2,15.6,0000.0,0003.53,0000.49,0000.30
2024-04-01 05:12:00,SystemResetWarning,0817.3,5.00,000.00,022.3,021.6,000.0,030.9,024.2,13.2,0000.0,0002.98,0000.49,0000.31
2024-04-01 05:13:00,SystemResetWarning,0817.4,5.00,000.00,022.3,021.6,000.0,030.9,024.2,14.2,0000.0,0002.13,0000.49,0000.32
2024-04-01 05:14:00,SystemResetWarning,0817.4,5.00,000.00,022.3,021.6,000.0,030.9,024.1,15.7,0000.0,0002.04,0000.48,0000.33
2024-04-01 05:15:00,SystemResetWarning,0817.4,5.00,000.00,022.3,021.6,000.0,030.9,024.1,16.1,0000.0,0002.09,0000.50,0000.34
2024-04-01 05:16:00,SystemResetWarning,0817.5,5.00,000.00,022.3,021.6,000.0,030.9,024.1,16.5,0000.0,0002.01,0000.49,0000.34
2024-04-01 05:17:00,SystemResetWarning,0817.5,5.00,000.00,022.3,021.6,000.0,030.9,024.1,15.6,0000.0,0001.90,0000.48,0000.34
2024-04-01 05:18:00,SystemResetWarning,0817.5,5.00,000.00,022.3,021.6,000.0,030.8,024.1,16.4,0000.0,0001.21,0000.46,0000.34
2024-04-01 05:19:00,SystemResetWarning,0817.5,5.00,000.00,022.3,021.6,000.0,030.8,024.1,16.5,0000.0,0000.69,0000.45,0000.34
2024-04-01 05:20:00,SystemResetWarning,0817.5,5.00,000.00,022.3,021.6,000.0,030.8,024.2,17.2,0000.0,0000.62,0000.42,0000.33
2024-04-01 05:21:00,SystemResetWarning,0817.4,5.00,000.00,022.3,021.6,000.0,030.8,024.1,17.2,0000.0,0000.60,0000.41,0000.33
2024-04-01 05:22:00,SystemResetWarning,0817.4,5.01,000.00,022.3,021.6,000.0,030.8,024.2,15.8,0000.0,0002.40,0000.41,0000.33
2024-04-01 05:23:00,SystemResetWarning,0817.4,5.02,000.00,022.3,021.6,000.0,030.8,024.2,14.4,0000.0,0003.25,0000.45,0000.33
2024-04-01 05:24:00,SystemResetWarning,0817.4,5.00,000.00,022.3,021.6,000.0,030.8,024.1,14.7,0000.0,0003.26,0000.45,0000.33
2024-04-01 05:25:00,SystemResetWarning,0817.4,4.99,000.00,022.3,021.6,000.0,030.9,024.1,15.3,0000.0,0003.30,0000.45,0000.32
2024-04-01 05:26:00,SystemResetWarning,0817.5,4.99,000.00,022.3,021.6,000.0,030.9,024.1,16.1,0000.0,0003.41,0000.46,0000.33
2024-04-01 05:27:00,SystemResetWarning,0817.5,5.00,000.00,022.3,021.6,000.0,030.9,024.1,16.4,0000.0,0003.47,0000.49,0000.34
2024-04-01 05:28:00,SystemResetWarning,0817.6,5.00,000.00,022.3,021.6,000.0,030.8,024.1,16.8,0000.0,0003.54,0000.52,0000.34
2024-04-01 05:29:00,SystemResetWarning,0817.6,5.00,000.00,022.3,021.6,000.0,030.8,024.1,17.5,0000.0,0003.57,0000.54,0000.34
2024-04-01 05:30:00,SystemResetWarning,0817.6,5.00,000.00,022.3,021.6,000.0,030.8,024.1,18.1,0000.0,0003.60,0000.55,0000.35
2024-04-01 05:31:00,SystemResetWarning,0817.6,5.00,000.00,022.3,021.6,000.0,030.9,024.1,18.6,0000.0,0003.64,0000.57,0000.35
2024-04-01 05:32:00,SystemResetWarning,0817.6,5.00,000.00,022.3,021.6,000.0,030.9,024.1,19.7,0000.0,0003.66,0000.58,0000.35
2024-04-01 05:33:00,SystemResetWarning,0817.6,5.00,000.00,022.3,021.5,000.0,030.9,024.1,20.5,0000.0,0003.02,0000.59,0000.36
2024-04-01 05:34:00,SystemResetWarning,0817.6,5.00,000.00,022.3,021.5,000.0,030.9,024.1,20.9,0000.0,0001.41,0000.57,0000.36
2024-04-01 05:35:00,SystemResetWarning,0817.6,5.00,000.00,022.3,021.5,000.0,030.9,024.1,21.4,0000.0,0001.42,0000.57,0000.38
2024-04-01 05:36:00,SystemResetWarning,0817.7,5.00,000.00,022.3,021.5,000.0,030.9,024.1,21.9,0000.0,0001.66,0000.63,0000.40
2024-04-01 05:37:00,SystemResetWarning,0817.7,4.99,000.00,022.3,021.4,000.0,030.9,024.1,22.1,0000.0,0001.65,0000.67,0000.41
2024-04-01 05:38:00,SystemResetWarning,0817.7,5.00,000.00,022.3,021.4,000.0,030.8,024.1,22.5,0000.0,0001.72,0000.71,0000.43
2024-04-01 05:39:00,SystemResetWarning,0817.6,5.00,000.00,022.3,021.4,000.0,030.8,024.1,22.7,0000.0,0001.70,0000.70,0000.44
2024-04-01 05:40:00,SystemResetWarning,0817.6,5.00,000.00,022.3,021.4,000.0,030.8,024.1,22.8,0000.0,0001.74,0000.71,0000.46
2024-04-01 05:41:00,SystemResetWarning,0817.5,5.00,000.00,022.3,021.4,000.0,030.8,024.1,22.9,0000.0,0001.80,0000.75,0000.49
2024-04-01 05:42:00,SystemResetWarning,0817.5,5.00,000.00,022.2,021.4,000.0,030.8,024.1,23.1,0000.0,0002.14,0000.79,0000.52
2024-04-01 05:43:00,SystemResetWarning,0817.4,5.00,000.00,022.2,021.4,000.0,030.8,024.0,23.1,0000.0,0002.26,0000.83,0000.55
2024-04-01 05:44:00,SystemResetWarning,0817.4,5.01,000.00,022.2,021.4,000.0,030.8,024.0,23.2,0000.0,0002.15,0000.88,0000.58
2024-04-01 05:45:00,SystemResetWarning,0817.4,5.00,000.00,022.2,021.3,000.0,030.8,024.0,23.3,0000.0,0002.04,0000.91,0000.60
2024-04-01 05:46:00,SystemResetWarning,0817.4,5.00,000.00,022.2,021.3,000.0,030.8,024.0,23.6,0000.0,0002.04,0000.93,0000.62
2024-04-01 05:47:00,SystemResetWarning,0817.4,5.00,000.00,022.2,021.3,000.0,030.8,024.0,23.7,0000.0,0001.86,0000.92,0000.63
2024-04-01 05:48:00,SystemResetWarning,0817.4,5.00,000.00,022.2,021.3,000.0,030.8,024.0,23.7,0000.0,0001.74,0000.88,0000.65
2024-04-01 05:49:00,SystemResetWarning,0817.4,5.00,000.00,022.2,021.3,000.0,030.8,024.0,23.6,0000.0,0001.74,0000.88,0000.65
2024-04-01 05:50:00,SystemResetWarning,0817.4,4.99,000.00,022.2,021.3,000.0,030.8,024.0,23.7,0000.0,0001.80,0000.91,0000.66
2024-04-01 05:51:00,SystemResetWarning,0817.4,5.00,000.00,022.2,021.3,000.0,030.8,024.0,23.8,0000.0,0001.87,0000.94,0000.67
2024-04-01 05:52:00,SystemResetWarning,0817.4,5.00,000.00,022.2,021.3,000.0,030.8,024.0,23.8,0000.0,0001.90,0000.96,0000.69
2024-04-01 05:53:00,SystemResetWarning,0817.5,4.99,000.00,022.2,021.3,000.0,030.8,024.0,23.7,0000.0,0001.65,0000.94,0000.69
2024-04-01 05:54:00,SystemResetWarning,0817.6,5.00,000.00,022.2,021.2,000.0,030.8,024.0,23.6,0000.0,0001.54,0000.97,0000.70
2024-04-01 05:55:00,SystemResetWarning,0817.6,5.00,000.00,022.1,021.2,000.0,030.8,023.9,23.7,0000.0,0001.66,0001.00,0000.70
2024-04-01 05:56:00,SystemResetWarning,0817.6,5.01,000.00,022.1,021.2,000.0,030.8,023.9,24.1,0000.0,0001.88,0001.03,0000.73
2024-04-01 05:57:00,SystemResetWarning,0817.6,5.02,000.00,022.1,021.2,000.0,030.8,023.9,24.4,0000.0,0002.15,0001.07,0000.75
2024-04-01 05:58:00,SystemResetWarning,0817.6,5.00,000.00,022.1,021.1,000.0,030.8,023.9,24.7,0000.0,0002.32,0001.09,0000.76
2024-04-01 05:59:00,SystemResetWarning,0817.5,4.99,000.00,022.1,021.1,000.0,030.7,023.9,24.9,0000.0,0002.59,0001.13,0000.77
